Regional Weather Roundup
Issued by NWS Sioux Falls, SD

Home | Current Version | Previous Version | Text Only | Print | Product List | Glossary On
Versions: 1 2 3 4 5 6 7 8 9 10 11 12 13 14 15 16 17 18 19 20 21 22 23 24 25 26 27 28 29 30 31 32 33 34 35 36 37 38 39 40 41 42 43 44 45 46 47 48 49 50
000
ASUS43 KFSD 031310
RWRFSD

WEATHER ROUNDUP FOR SE SOUTH DAKOTA/SW MINNESOTA/NW IOWA
NATIONAL WEATHER SERVICE SIOUX FALLS SD
700 AM CST SAT DEC 03 2016

NOTE: "FAIR" INDICATES FEW OR NO CLOUDS BELOW 12,000 FEET WITH NO
SIGNIFICANT WEATHER AND OR OBSTRUCTIONS TO VISIBILITY.


SDZ038>040-050-052>070-031400-
SOUTHEAST SOUTH DAKOTA

CITY           SKY/WX    TMP DP  RH WIND       PRES   REMARKS
BROOKINGS      CLEAR     24  21  88 SE8       30.20F WCI  15
CHAMBERLAIN    CLOUDY    26  26  99 SE3       30.11F
HURON          CLEAR     25  24  96 SE9       30.17F WCI  15
MADISON        FAIR      25  25 100 SE6       30.20F WCI  18
MITCHELL       CLEAR     26  25  96 SE9       30.18F WCI  17
SIOUX FALLS    PTCLDY    28  26  92 SE6       30.22F WCI  22
WINNER         CLOUDY    33  26  75 S15       30.09F WCI  23
YANKTON        PTCLDY    25  21  86 E6        30.22S WCI  18
$$

MNZ071-072-080-081-089-090-097-098-031400-
SOUTHWEST MINNESOTA

CITY           SKY/WX    TMP DP  RH WIND       PRES   REMARKS
FAIRMONT       CLOUDY    28  21  75 N5        30.30F WCI  23
JACKSON        CLOUDY    27  21  80 CALM      30.27F
LUVERNE        CLEAR     28  25  86 CALM      30.24F
MARSHALL       CLOUDY    25  20  81 SE5       30.27F WCI  19
MONTEVIDEO     MOCLDY    23  21  93 CALM      30.29F
PIPESTONE      PTCLDY    27  25  93 SE5       30.21F WCI  21
REDWOOD FALLS  CLOUDY    28  18  66 W7        30.29F WCI  21
TRACY          CLOUDY    26  21  81 CALM      30.26F
WINDOM         CLOUDY    27  19  74 CALM      30.27F
WORTHINGTON    CLOUDY    28  24  85 E6        30.25F WCI  22
$$

IAZ001>003-012>014-020>022-031-032-NEZ013-014-SDZ071-031400-
NORTHWEST IOWA

CITY           SKY/WX    TMP DP  RH WIND       PRES   REMARKS
CHEROKEE       PTCLDY    27  27  99 CALM      30.28S
DENISON          N/A     27  25  93 CALM      30.27S
ESTHERVILLE    CLOUDY    28  23  81 NE3       30.27F
LE MARS        CLEAR     27  25  93 CALM      30.27F
ORANGE CITY    CLEAR     28  27  93 CALM      30.25F
SHELDON        CLEAR     28  28 100 SE6       30.24F WCI  22
SIOUX CITY     CLEAR     23  21  92 SE7       30.28F WCI  15
SPENCER        CLOUDY    31  28  89 S6        30.27F WCI  25
STORM LAKE     CLEAR     30  27  86 S5        30.27S WCI  25
$$

ABBREVIATIONS USED IN REMARKS
   TC - TEMPERATURE IN CELSIUS
  WCI - WIND CHILL INDEX
   HX - HEAT INDEX
  VSB - VISIBILITY





USA.gov is the U.S. government's official web portal to all federal, state and local government web resources and services.